• Processing (Info)

  • MPEC 2007-K44 : 2007 KE4

    The following Minor Planet Electronic Circular may be linked-to from your own Web pages, but must not otherwise be redistributed electronically.

    A form allowing access to any MPEC is at the bottom of this page.


    Read MPEC 2007-K43 Read MPEC 2007-K45


    M.P.E.C. 2007-K44                                Issued 2007 May 24, 21:23 UT
    
         The Minor Planet Electronic Circulars contain information on unusual
             minor planets and routine data on comets.  They are published
       on behalf of Commission 20 of the International Astronomical Union by the
              Minor Planet Center, Smithsonian Astrophysical Observatory,
                              Cambridge, MA 02138, U.S.A.
    
                 Prepared using the Tamkin Foundation Computer Network
    
                                  MPC@CFA.HARVARD.EDU
              URL http://www.cfa.harvard.edu/iau/mpc.html  ISSN 1523-6714
    
                                       2007 KE4
    
    Observations:
         K07K04E* C2007 05 24.32711 15 14 42.68 +00 31 55.4          18.0 V EK044703
         K07K04E  C2007 05 24.33310 15 14 48.62 +00 29 39.8          18.6 V EK044703
         K07K04E  C2007 05 24.33913 15 14 54.78 +00 27 23.3          18.5 V EK044703
         K07K04E  C2007 05 24.34515 15 15 00.86 +00 25 08.4          18.0 V EK044703
         K07K04E  C2007 05 24.36968 15 15 25.95 +00 15 49.3          18.2 V EK044703
         K07K04E  C2007 05 24.37004 15 15 26.31 +00 15 40.5          18.2 V EK044703
         K07K04E  C2007 05 24.37040 15 15 26.67 +00 15 31.9          18.3 V EK044703
         K07K04E  C2007 05 24.37077 15 15 27.03 +00 15 23.7          18.3 V EK044703
         K07K04E  C2007 05 24.40215 15 15 59.83 +00 03 23.1          18.1 V EK044703
         K07K04E  C2007 05 24.40251 15 16 00.19 +00 03 14.6          18.3 V EK044703
         K07K04E  C2007 05 24.40287 15 16 00.62 +00 03 06.3          18.4 V EK044703
         K07K04E  C2007 05 24.85201 15 25 31.20 -03 03 24.6          18.3 V EK044595
         K07K04E  C2007 05 24.85695 15 25 37.36 -03 05 35.8          18.3 V EK044595
         K07K04E  C2007 05 24.86130 15 25 42.68 -03 07 32.3          18.1 V EK044595
    
    Observer details:
    595 Farra d'Isonzo.  Observers E. Pettarin, L. Bittesini, G. Lombardi,
        F. Piani.  Measurer E. Pettarin.  0.40-m f/4.5 reflector + CCD.
    703 Catalina Sky Survey.  Observer R. A. Kowalski.  Measurers E. C. Beshore,
        A. Boattini, G. J. Garradd, A. R. Gibbs, A. D. Grauer, R. E. Hill,
        R. A. Kowalski, S. M. Larson, R. H. McNaught.  0.68-m Schmidt + CCD.
    
    Orbital elements:
    2007 KE4                                                 Earth MOID = 0.0164 AU
    Epoch 2007 Apr. 10.0 TT = JDT 2454200.5                 MPC
    M 344.12885              (2000.0)            P               Q
    n   0.26928397     Peri.  194.45044     -0.18421646     +0.97181931
    a   2.3749933      Node    65.10866     -0.88492144     -0.09886476
    e   0.5703631      Incl.    9.33101     -0.42775969     -0.21399296
    P   3.66           H   25.0           G   0.15           U   8
    Residuals in seconds of arc
    070524 703  0.5+  0.0     070524 703  0.0   0.1-    070524 703  0.4+  0.1-
    070524 703  0.7-  0.3-    070524 703  0.2-  0.4-    070524 595  1.0-  0.1+
    070524 703  0.4+  0.4-    070524 703  0.5-  0.2-    070524 595  0.6+  0.3+
    070524 703  0.1+  1.1+    070524 703  0.0   0.0     070524 595  0.4+  0.3-
    070524 703  0.2+  0.5+    070524 703  0.3-  0.2-
    
    Ephemeris:
    2007 KE4                 a,e,i = 2.37, 0.57, 9                   q = 1.0204
    Date    TT    R. A. (2000) Decl.     Delta      r     Elong.  Phase     V
    2007 05 20    14 27.65   +15 55.4    0.0481   1.049   139.5    38.8    20.1
    2007 05 21    14 34.61   +13 46.7    0.0429   1.046   141.5    37.0    19.8
    2007 05 22    14 43.33   +11 01.1    0.0379   1.043   144.3    34.5    19.4
    2007 05 23    14 54.46   +07 23.5    0.0331   1.041   148.2    30.9    19.0
    2007 05 24    15 09.03   +02 31.6    0.0286   1.038   153.5    25.8    18.5
    2007 05 25    15 28.69   -04 05.5    0.0245   1.036   161.1    18.5    18.0
    2007 05 26    15 56.05   -13 02.0    0.0211   1.034   171.4     8.4    17.3
    2007 05 27    16 35.17   -24 24.8    0.0188   1.032   174.0     5.9    16.9
    2007 05 28    17 31.14   -36 47.0    0.0180   1.030   157.8    21.9    17.4
    2007 05 29    18 45.78   -46 52.2    0.0189   1.028   141.4    37.9    18.0
    2007 05 30    20 08.62   -52 13.2    0.0213   1.027   127.7    51.3    18.6
    2007 05 31    21 20.96   -53 26.4    0.0247   1.025   117.5    61.3    19.2
    2007 06 01    22 14.38   -52 33.4    0.0288   1.024   110.1    68.4    19.8
    2007 06 02    22 51.64   -50 58.8    0.0333   1.023   104.9    73.3    20.2
    2007 06 03    23 17.83   -49 19.9    0.0380   1.022   101.1    76.8    20.6
    2007 06 04    23 36.79   -47 49.2    0.0430   1.021    98.3    79.3    21.0
    2007 06 05    23 50.97   -46 29.6    0.0480   1.021    96.3    81.0    21.3
    2007 06 06    00 01.90   -45 20.9    0.0532   1.021    94.8    82.2    21.5
    2007 06 07    00 10.54   -44 21.7    0.0583   1.020    93.7    83.0    21.8
    2007 06 08    00 17.54   -43 30.4    0.0635   1.020    92.9    83.5    22.0
    2007 06 09    00 23.30   -42 45.9    0.0688   1.020    92.4    83.8    22.2
    
    Timothy B. Spahr             (C) Copyright 2007 MPC           M.P.E.C. 2007-K44
    

    Read MPEC 2007-K43 Read MPEC 2007-K45


    MPEC number:

    Enter an MPEC number in one of the following forms:

    • 1997-B01 (the full form)
    • J97B01 (the packed version of the full form)
    • B01 (the abbreviated form)